Theta_e
322 322 326 322 320 321 327 326 324 325 337 333 328 328 332 332 336 335 333 336 335 333 330 331 333 331 336 334 333 332 330 329 329 328 328 327 327 327 326 326 326 325 326 326 326 326 326 326 326
322 322 324 317 320 322 319 321 323 323 332 336 336 336 334 334 334 334 335 335 335 332 328 334 335 332 335 334 330 330 329 328 328 328 327 327 326 326 326 325 325 325 325 326 326 326 327 327 327
322 322 322 323 322 320 319 320 323 330 336 336 339 334 335 336 333 334 335 335 332 331 329 335 334 332 333 333 331 328 328 328 328 327 327 326 326 325 325 325 325 325 325 326 327 328 328 328 328
321 319 317 325 325 321 319 320 319 324 338 336 336 339 332 332 333 334 335 334 333 332 333 335 332 330 331 330 329 326 327 328 327 327 326 326 326 325 326 326 325 326 326 327 328 327 327 327 326
318 316 324 326 324 322 319 319 319 323 333 337 335 337 334 333 334 334 334 334 333 334 334 334 329 327 329 327 325 326 327 327 327 326 326 326 326 326 325 324 325 326 327 327 327 327 326 326 326
320 316 324 326 325 322 320 317 320 321 328 335 336 333 333 332 334 334 334 333 332 333 335 334 330 328 325 324 325 326 326 327 326 326 326 326 325 325 326 327 327 327 327 327 328 327 327 327 327
321 320 324 324 324 323 322 319 319 319 323 334 332 334 334 332 333 333 333 332 334 333 334 332 328 324 323 324 326 325 325 326 325 325 324 324 325 326 327 327 327 327 327 328 327 327 327 327 325
317 319 323 321 326 326 322 321 320 323 327 332 332 337 335 331 333 333 333 332 335 335 332 328 324 324 325 326 326 325 324 323 320 322 324 326 327 327 327 327 327 328 328 328 328 327 326 327 326
315 322 328 324 324 324 321 322 321 331 335 334 333 332 330 333 333 332 333 333 332 332 330 324 323 324 325 326 325 324 321 318 321 325 327 327 327 327 327 328 329 329 327 328 329 326 325 324 324
319 321 326 321 320 322 321 320 320 327 334 336 336 331 332 332 331 331 331 332 331 330 330 326 322 322 325 326 324 320 319 321 325 326 325 326 327 326 325 327 329 328 329 327 326 325 324 324 324
320 324 323 321 320 320 321 321 320 323 323 326 328 331 332 333 330 330 331 330 329 328 328 328 323 321 323 322 319 319 319 321 325 324 324 325 325 326 327 326 328 329 328 326 323 321 321 321 323
319 321 320 322 321 322 322 320 321 320 322 322 325 328 330 332 332 331 330 329 328 327 327 330 325 322 320 317 318 319 321 325 325 324 326 326 326 328 328 327 328 327 327 323 322 320 318 319 321
313 317 316 315 315 317 322 324 322 321 318 318 320 328 329 332 331 331 330 330 327 327 328 330 328 324 319 317 318 320 325 326 325 326 327 327 328 328 327 326 325 321 320 318 315 313 315 318 318
312 313 313 312 312 314 315 321 324 322 319 319 320 327 328 331 331 331 331 330 327 326 327 328 329 324 318 318 319 321 325 325 326 325 323 323 323 324 325 321 320 318 315 313 310 308 316 318 315
313 313 309 310 311 314 320 320 321 321 321 322 323 329 326 330 331 331 330 329 328 328 327 328 329 323 318 318 321 321 326 326 327 324 321 322 324 323 321 318 315 313 311 307 303 305 313 315 311
310 309 312 309 309 312 319 309 314 318 321 324 325 327 329 326 330 331 330 329 329 328 326 327 326 323 319 320 321 325 326 327 325 323 322 323 323 320 317 314 310 307 305 302 298 303 312 311 307
305 304 308 308 308 309 317 316 315 314 323 324 328 328 326 326 324 328 328 329 329 329 327 326 325 323 320 320 324 326 326 327 324 322 323 322 320 318 313 310 306 301 299 297 297 301 308 307 301
301 305 306 307 307 307 308 309 310 312 315 318 321 325 328 324 322 324 325 327 328 328 327 326 325 323 321 322 326 325 325 323 321 320 321 318 314 312 306 303 302 299 297 295 296 299 305 303 298
306 308 307 305 305 306 308 309 308 309 311 312 315 318 318 327 324 323 323 325 325 326 326 325 324 322 322 321 320 316 315 314 314 314 314 311 309 305 300 299 298 296 295 295 296 301 302 297 296
304 306 306 305 305 306 306 308 308 309 310 310 311 315 317 318 326 323 323 323 324 325 325 323 322 322 323 321 317 314 313 308 310 308 306 304 302 299 297 296 296 296 295 294 296 300 299 295 296
304 303 302 303 303 305 306 308 305 306 308 309 309 310 314 316 319 325 323 323 324 325 323 320 321 322 321 317 316 313 308 306 303 301 300 299 298 296 295 294 294 294 294 293 295 298 299 297 295
303 301 301 303 304 306 305 307 305 304 307 310 310 309 312 315 316 322 323 323 323 324 322 319 321 318 317 318 315 316 307 302 300 299 298 297 296 294 293 293 293 293 292 292 293 293 295 298 294
302 302 303 304 306 307 306 308 306 306 309 310 311 312 313 315 315 319 322 322 323 323 319 318 317 316 316 316 317 314 306 305 301 298 295 295 294 293 292 292 292 292 291 291 291 291 291 291 290
302 303 304 305 303 306 304 306 307 305 305 308 309 310 312 314 314 318 320 322 322 322 318 315 315 315 314 312 313 310 306 301 298 294 293 292 292 292 291 291 291 290 290 290 289 289 289 289 288
303 302 300 296 305 306 307 307 309 308 307 307 308 309 313 313 316 318 319 321 322 321 318 315 314 310 309 309 308 308 306 302 298 294 292 291 291 290 290 290 290 289 289 289 289 288 287 287 287
302 301 301 300 305 305 304 304 306 307 308 311 311 310 312 314 316 316 314 313 312 317 317 316 313 307 306 306 305 304 301 297 295 294 293 291 290 290 289 289 289 289 288 288 287 287 286 286 285
303 306 303 307 305 307 302 304 308 310 310 309 310 310 313 313 314 313 311 310 310 310 312 311 308 305 304 303 302 299 298 296 295 294 292 292 290 289 289 289 289 288 288 287 287 286 286 285 285
304 304 306 299 308 306 303 304 312 311 310 308 307 307 312 313 312 310 309 310 309 308 307 306 305 303 300 299 299 297 296 295 293 292 291 289 289 288 288 289 289 288 287 286 286 285 285 285 285
302 305 304 304 304 310 309 310 312 309 306 305 304 305 310 314 309 306 305 304 305 305 304 302 301 299 299 299 297 296 295 295 294 292 293 293 291 291 293 290 288 287 287 286 285 285 285 285 285
302 303 306 308 305 306 307 308 310 309 307 304 301 307 311 308 304 303 302 300 301 301 301 300 299 299 298 296 296 295 295 294 294 292 290 290 294 292 289 288 288 287 286 286 285 285 285 285 284
Wind_Speed
15 10 5 4 3 4 3 6 2 7 5 5 4 5 11 6 5 4 5 12 33 37 31 28 25 24 23 21 19 18 17 16 16 15 15 14 13 13 12 11 11 11 11 11 11 11 11 11 11
14 6 3 2 4 2 5 4 5 3 3 2 4 3 2 4 3 4 12 17 33 35 32 29 29 26 23 21 19 18 17 17 15 14 14 14 13 11 11 11 11 11 10 10 10 11 11 11 11
8 4 3 4 4 5 5 5 3 4 4 3 2 1 0 2 1 13 5 27 36 35 33 31 28 26 23 20 19 19 19 17 16 14 13 13 12 11 11 10 10 9 9 9 10 10 10 9 10
4 5 4 2 7 7 8 2 2 5 1 1 1 3 3 4 4 12 22 33 36 34 32 32 29 26 24 22 21 19 19 17 16 15 14 13 12 11 10 9 9 8 8 8 8 9 10 9 10
4 3 2 3 6 5 4 4 3 2 3 3 5 3 3 1 6 17 30 33 35 33 31 30 28 26 24 23 22 22 20 18 17 16 14 13 12 11 10 10 10 9 7 8 9 11 11 12 13
2 3 1 5 6 5 5 4 4 3 3 3 5 5 3 2 15 24 31 32 31 33 32 30 26 25 24 24 24 23 22 19 17 16 15 14 13 12 11 10 9 9 9 9 12 12 10 10 11
4 3 5 5 4 5 6 6 5 4 4 5 4 7 0 7 17 24 30 30 23 32 34 29 26 24 24 24 24 23 21 19 18 16 15 15 14 13 11 10 10 9 9 11 12 9 7 7 7
3 3 4 6 7 10 5 3 3 5 4 2 3 6 5 8 22 24 30 30 24 33 33 29 26 26 27 26 25 23 21 20 19 18 16 15 14 12 11 10 9 9 9 8 7 9 6 7 7
3 2 10 6 6 6 2 4 2 0 3 3 4 1 2 26 30 27 25 27 26 30 32 32 29 27 27 25 25 23 21 20 20 19 17 15 13 11 9 8 9 8 8 4 6 8 8 5 6
4 4 6 6 6 5 8 8 7 4 5 4 3 2 11 29 31 30 29 28 31 30 27 33 32 30 28 27 24 22 21 21 21 18 16 13 12 10 9 9 9 9 10 9 6 8 8 8 10
3 5 3 2 6 7 10 5 6 7 7 6 6 4 13 23 25 28 29 31 35 34 30 34 34 32 30 27 25 23 22 21 20 17 13 13 13 14 11 10 8 11 10 9 9 8 8 10 10
6 4 5 6 8 7 6 5 5 11 12 7 8 4 13 18 19 27 30 34 34 35 35 35 38 36 33 30 26 24 23 22 20 17 15 15 17 16 14 11 10 10 10 10 8 6 8 10 12
4 6 9 13 14 14 10 15 12 11 7 10 7 6 15 19 25 29 25 24 27 32 36 39 40 39 35 33 30 26 24 22 20 18 17 17 14 13 12 12 12 13 12 9 9 9 11 13 15
5 7 10 7 11 12 17 20 7 3 8 9 9 10 16 22 27 29 25 26 31 33 35 38 43 42 38 36 32 29 26 22 20 19 17 16 16 16 14 14 14 13 11 10 10 12 14 16 17
6 11 12 7 7 8 7 29 30 9 10 13 15 11 16 20 29 30 33 34 33 30 30 36 43 42 43 39 34 30 26 24 21 19 19 18 18 17 16 16 15 13 12 11 12 14 16 18 18
5 3 4 5 11 6 8 37 8 4 11 16 16 13 15 19 23 35 34 33 31 31 32 31 36 38 42 41 36 33 29 26 22 19 20 21 19 17 17 17 15 14 14 13 13 15 18 20 20
4 5 6 7 5 8 9 24 8 9 10 14 10 10 9 13 16 28 30 34 36 36 33 34 32 37 41 39 37 34 31 28 25 23 22 21 20 18 18 17 16 15 14 14 14 18 20 23 22
5 8 8 12 5 19 23 31 16 12 14 9 8 10 12 13 15 22 29 33 35 37 39 38 34 38 41 38 36 33 30 27 25 24 23 22 20 19 18 18 17 16 15 15 16 18 21 24 24
9 13 17 14 14 17 22 28 21 17 11 17 11 14 9 14 17 28 26 29 34 35 38 39 41 43 43 40 36 32 31 27 25 23 23 22 21 20 19 18 18 17 15 16 18 22 24 24 24
8 11 19 17 12 12 19 28 20 16 19 19 20 16 16 13 13 15 27 30 34 38 40 41 44 46 44 44 33 28 31 26 25 23 22 22 21 20 19 19 19 17 17 18 19 23 25 23 16
6 8 17 18 16 15 20 27 23 20 23 22 25 23 20 19 17 18 21 32 35 37 39 42 48 48 44 39 38 31 30 27 24 23 23 21 20 19 19 18 19 18 16 17 17 18 19 16 11
11 12 15 13 10 11 6 19 22 19 21 20 23 23 20 21 16 17 21 29 37 37 40 43 48 44 44 46 42 43 30 24 22 30 27 25 21 18 18 17 17 17 16 16 16 15 14 16 16
11 2 10 15 15 13 18 9 14 8 13 21 18 20 21 22 20 19 21 32 39 39 38 40 45 44 45 47 46 42 30 25 32 30 27 25 23 21 19 19 18 17 16 16 14 14 14 15 14
13 10 15 15 7 9 27 12 15 15 18 19 20 20 22 20 18 18 26 32 36 37 38 38 43 44 44 44 43 38 38 35 35 34 30 28 26 23 19 19 18 18 16 15 16 15 15 15 14
2 7 5 5 2 7 2 3 9 16 12 17 21 19 15 17 14 15 18 15 32 37 39 39 36 34 39 38 37 38 38 38 39 35 33 34 29 25 23 20 19 18 17 14 14 14 14 14 14
11 6 2 5 6 17 14 7 9 6 9 10 13 20 11 11 13 13 14 11 11 28 38 39 40 34 37 38 36 35 34 35 37 37 31 31 31 27 24 23 17 16 15 13 13 12 13 13 12
3 4 6 7 12 11 4 8 7 9 17 20 19 19 12 13 14 15 12 14 16 14 32 37 38 35 34 36 37 34 33 34 33 33 32 28 28 26 22 20 19 15 13 13 11 11 12 10 10
6 4 5 4 5 8 6 6 3 14 22 25 22 17 12 10 7 6 8 12 20 21 14 32 38 40 38 35 35 34 34 37 36 32 31 27 25 24 20 17 13 14 13 12 11 11 10 8 8
4 4 3 4 3 5 8 6 2 9 14 21 24 18 16 11 9 8 6 10 15 24 24 25 33 37 35 40 38 38 36 38 36 30 29 26 23 20 17 16 16 15 13 13 11 10 8 6 5
5 5 3 4 6 8 11 8 4 4 12 15 17 17 6 9 8 9 10 12 17 19 26 23 31 35 35 38 38 39 41 39 36 30 28 24 20 17 18 18 16 15 14 12 10 8 7 5 4
Wind_Direction
339 335 344 15 53 65 243 253 251 317 323 339 152 150 184 157 182 207 161 159 163 162 164 161 161 161 153 151 144 141 138 135 132 129 125 121 116 111 106 101 97 91 88 83 81 78 75 72 70
335 332 57 78 103 149 263 256 262 233 261 167 2 12 112 198 161 142 141 169 166 162 162 161 161 160 154 151 144 143 140 138 136 133 128 124 119 116 110 104 100 95 92 89 87 84 81 77 74
330 341 93 132 146 190 221 221 181 297 151 28 113 116 253 239 250 171 201 164 165 164 164 164 163 165 164 156 153 149 145 144 140 137 133 130 124 118 115 109 103 102 98 95 91 88 85 82 77
344 11 33 123 204 229 199 217 273 344 87 105 102 267 313 228 195 187 164 162 162 164 166 166 165 168 168 165 161 156 150 148 146 144 139 133 130 126 126 121 118 104 101 96 94 94 89 87 89
32 62 214 228 257 279 254 246 231 315 273 166 135 259 260 346 185 165 163 163 161 166 169 168 168 168 168 167 165 157 156 154 152 149 145 142 138 132 127 117 114 112 107 102 99 89 91 95 92
49 105 185 243 242 250 276 260 306 249 228 171 172 154 245 212 158 160 163 166 163 165 171 170 173 173 171 169 163 161 161 158 156 153 150 145 138 132 129 130 126 123 119 114 103 94 87 88 90
159 142 211 216 236 278 247 186 203 248 276 250 150 151 257 174 170 163 163 168 165 171 172 173 174 174 169 164 163 166 166 162 162 157 150 145 140 138 135 130 126 123 117 116 110 92 94 104 90
147 143 207 206 214 258 237 217 177 187 268 41 171 194 214 178 170 166 166 170 168 173 174 175 174 171 166 168 169 170 168 165 159 154 151 148 146 142 137 135 131 122 116 124 121 111 85 92 100
129 229 242 217 189 240 253 238 267 7 190 192 207 244 297 162 162 164 165 167 172 178 179 176 174 173 172 173 173 172 168 164 159 156 154 151 149 140 138 138 135 146 138 143 138 126 126 123 119
186 223 246 188 206 235 263 217 234 208 215 235 241 203 144 156 165 174 182 177 179 180 179 180 176 175 176 176 175 173 170 167 162 161 161 163 158 154 155 149 151 144 147 150 157 138 136 137 137
254 257 259 245 247 245 262 251 221 195 226 217 234 190 164 166 182 183 189 190 183 178 177 182 180 178 178 180 176 175 174 171 169 169 173 167 175 179 169 175 175 175 176 166 151 137 148 148 151
322 309 347 330 344 315 278 302 254 220 232 215 232 190 172 183 187 196 195 191 185 179 179 182 184 180 180 177 178 178 176 175 176 180 177 183 186 184 173 182 182 172 168 159 153 152 144 144 144
243 339 333 329 317 305 272 271 260 248 241 264 256 186 184 192 199 201 198 199 189 184 182 181 185 184 181 178 177 180 182 182 184 184 177 189 187 181 183 182 175 166 161 160 154 147 142 143 140
306 293 300 296 297 287 286 284 257 139 213 259 268 214 197 196 200 199 196 196 194 192 189 185 188 186 181 180 179 182 186 189 188 182 182 191 195 193 194 180 171 167 162 160 157 148 146 141 140
287 303 308 247 237 236 302 272 253 229 234 244 257 219 209 209 203 198 197 194 193 196 190 187 189 190 181 180 181 184 188 191 191 185 190 196 200 191 183 176 171 165 162 159 156 150 150 144 140
315 279 334 322 350 265 187 260 341 263 224 237 234 229 214 213 201 205 199 195 191 190 193 188 185 188 185 182 180 183 187 190 194 185 197 196 193 191 184 176 170 163 161 159 155 149 146 143 141
336 283 286 307 259 286 249 285 345 304 260 260 238 233 217 220 215 205 196 191 187 188 187 186 188 187 188 184 181 183 185 189 191 188 194 190 188 188 184 177 167 160 159 158 157 148 153 145 137
277 282 277 284 305 307 294 287 295 301 292 272 274 266 223 207 210 204 195 187 185 186 185 182 184 189 186 184 181 179 181 184 188 186 188 186 184 182 180 173 166 163 160 154 157 153 150 147 140
268 274 277 278 282 276 269 277 282 279 276 284 266 264 278 248 218 193 197 188 182 182 181 179 181 188 185 183 175 173 174 176 178 180 182 182 180 177 176 168 161 156 156 148 153 146 146 137 138
266 282 287 280 262 256 275 277 278 272 262 265 272 257 252 253 232 206 185 187 186 183 184 179 182 185 187 185 178 174 176 173 176 177 176 176 174 173 171 167 162 161 156 145 150 154 146 143 159
276 261 276 276 285 271 284 280 282 270 252 252 252 249 243 242 241 216 193 191 190 189 184 183 182 185 186 178 179 175 175 170 168 170 169 168 171 170 168 163 157 153 157 156 153 161 162 155 163
280 250 268 277 298 287 177 286 280 280 266 246 244 248 231 233 228 203 202 190 192 192 183 183 180 180 182 188 180 182 173 162 176 173 169 163 166 165 160 156 150 146 146 146 157 166 173 168 152
254 277 275 281 275 281 276 261 290 259 265 247 240 238 225 222 219 209 206 198 195 188 180 180 175 178 182 186 188 182 174 173 176 172 165 162 158 162 156 153 145 139 138 135 137 141 147 153 150
263 303 288 266 252 262 261 235 269 271 257 259 253 246 231 218 210 204 198 198 196 186 179 172 173 171 184 187 188 180 176 172 162 163 161 158 153 151 153 148 142 138 131 132 126 125 129 126 121
87 335 307 327 307 255 11 293 240 295 269 251 260 256 236 217 204 186 185 198 201 187 176 168 171 166 177 179 181 185 186 178 166 162 163 156 149 152 152 145 139 137 136 133 129 131 123 118 116
296 192 235 277 288 291 292 248 258 264 324 318 303 279 217 200 193 189 173 160 174 190 175 175 168 164 169 173 178 183 178 163 159 164 162 155 157 154 150 143 138 138 137 137 136 133 126 122 115
312 241 224 272 258 265 252 286 308 357 347 335 327 309 205 188 188 182 177 165 166 199 172 170 160 157 161 165 170 168 166 162 156 160 162 161 154 154 147 138 144 147 145 147 146 144 134 128 117
206 300 316 328 296 298 277 274 281 339 346 327 313 305 242 204 193 176 187 166 165 168 188 157 153 151 152 150 154 152 151 155 155 161 157 152 147 150 146 135 147 160 160 158 162 155 140 135 121
332 293 297 228 218 290 312 294 2 332 339 323 310 291 277 202 160 155 118 126 152 146 149 144 137 138 143 147 146 145 146 154 149 155 156 157 157 155 157 161 170 173 171 175 172 163 154 149 143
217 271 260 307 301 281 269 276 209 18 355 333 312 297 214 157 141 127 125 126 130 137 135 134 135 135 139 137 140 143 147 150 150 159 153 153 167 158 159 173 179 183 183 185 185 179 177 176 192